Regional Weather Roundup
Issued by NWS

Home | Current Version | Previous Version | Text Only | Print | Product List | Glossary On
Versions: 1 2 3 4 5 6 7 8 9 10 11 12 13 14 15 16 17 18 19 20 21 22 23 24 25 26 27 28 29 30 31 32 33 34 35 36 37 38 39 40 41 42 43 44 45 46 47 48 49 50
000
ASUS45 KABQ 141010
RWRNM
NEW MEXICO REGIONAL WEATHER ROUNDUP
NATIONAL WEATHER SERVICE ALBUQUERQUE NM
300 AM MST SUN FEB 14 2016

NOTE: "FAIR" MEANS FEW OR NO CLOUDS BELOW 12,000 FEET AGL WITH NO
       SIGNIFICANT WEATHER OR OBSTRUCTIONS TO VISION.

      THIS PRODUCT IS RELEASED AS TWO VERSIONS.  ONE VERSION NEAR
      THE TOP OF THE HOUR CONTAINING PRELIMINARY DATA FROM ALBUQUERQUE
      AND OTHER STATIONS.  A FINAL VERSION WITH ADDITIONAL DATA IS
      ISSUED ABOUT 10 MINUTES AFTER THE HOUR.

NMZ501-503-504-510>518-141100-
NORTHWEST PLATEAU/NORTHCENTRAL MOUNTAINS

CITY           SKY/WX    TMP DP  RH WIND       PRES   REMARKS
FARMINGTON     FAIR      35  22  58 W9        30.14F WCI  28
LOS ALAMOS     FAIR      38  16  39 CALM      30.13F
SANTA FE       FAIR      39  18  42 N10       30.09F WCI  32
TAOS           FAIR      27  19  74 SE3       30.14F
ANGEL FIRE     FAIR      21  14  73 CALM      30.14F

$$
NMZ402-403-502-505>509-141100-
WESTCENTRAL MOUNTAINS/SOUTHWEST MOUNTAINS

CITY           SKY/WX    TMP DP  RH WIND       PRES   REMARKS
GALLUP         FAIR      23  19  85 CALM      30.20F
GRANTS         FAIR      19  13  77 NW7       30.21R WCI  10
SILVER CITY      N/A     41  10  28 N13       30.12S

$$
NMZ407-409-411-412-141100-
SOUTHERN DESERTS

CITY           SKY/WX    TMP DP  RH WIND       PRES   REMARKS
LORDSBURG      FAIR      39  14  35 CALM      30.08S
DEMING         FAIR      38  12  34 W7        30.07F WCI  33
LAS CRUCES     FAIR      42  11  28 NW3       30.06F
HOLLOMAN AFB   FAIR      38   9  30 N5        30.01F WCI  34
ALAMOGORDO     FAIR      48  10  21 NE9       30.02F
T OR C         FAIR      49  11  21 NW12      30.07F

$$
NMZ519>523-141100-
CENTRAL VALLEYS/CENTRAL HIGHLANDS

CITY           SKY/WX    TMP DP  RH WIND       PRES   REMARKS
ALBUQUERQUE    MOCLDY    46  15  28 W5        30.11S
DOUBLE EAGLE   FAIR      45  16  31 N8        30.12S
MORIARTY ARPT  FAIR      32  13  46 N7        30.10F WCI  25
CLINES CORNERS FAIR      31  16  54 W8        30.08F WCI  23
BELEN          FAIR      32  12  43 NE8       30.12R WCI  25
SOCORRO        FAIR      44  10  25 N5        30.08F

$$
NMZ524>526-539-540-141100-
SOUTHCENTRAL MOUNTAINS

CITY           SKY/WX    TMP DP  RH WIND       PRES   REMARKS
RUIDOSO          N/A     45   7  21 W7        30.12F

$$
NMZ527>531-141100-
NORTHEAST HIGHLANDS/NORTHEAST PLAINS

CITY           SKY/WX    TMP DP  RH WIND       PRES   REMARKS
LAS VEGAS      FAIR      38  11  32 N8        30.06F WCI  32
RATON          FAIR      27  14  58 N5        30.04S WCI  22
CLAYTON        FAIR      37  27  67 N24G32    30.03R WCI  26

$$
NMZ532>537-141100-
EASTCENTRAL PLAINS

CITY           SKY/WX    TMP DP  RH WIND       PRES   REMARKS
TUCUMCARI      FAIR      36  20  52 W9        29.95F WCI  29
CANNON AFB     FAIR      42  17  36 N15       29.94F
CLOVIS AIRPORT FAIR      43  18  36 NW13      29.95S

$$
NMZ028-029-538-141100-
SOUTHEAST PLAINS

CITY           SKY/WX    TMP DP  RH WIND       PRES   REMARKS
ROSWELL        FAIR      44  15  31 CALM      29.96F
ARTESIA        FAIR      39  18  41 N12       29.98S WCI  32
CARLSBAD       FAIR      34  25  69 NW3       29.96F
HOBBS          FAIR      39  39 100 SW8       29.98S WCI  34


$$



USA.gov is the U.S. government's official web portal to all federal, state and local government web resources and services.